Powrót do katalogu

CZ-6A DEB

AktywnyPO
NORAD 54895·DEBRIS·🇨🇳 China

Wystrzelony Nov 11, 2022 z Taiyuan Satellite Launch Center

Loading…

Następne Przeloty (najbliższe 24 godziny)

TLE

ŚwieżeSource: Space-Track

Epoka: Sep 13, 2026, 17:45 UTC

1 54895U 22151QG  26256.73961022  .00006413  00000-0  10107-2 0  9998
2 54895  98.6282 325.9656 0065334  13.0388 347.2488 14.71390531200459

Śledź CZ-6A DEB w czasie rzeczywistym z AllMySat

Download on the App Store